Location: Shenandoah County Park
(38.9356°N, 78.4524°W)
Time: 09:18:36
(UTC-04:00)

deb Explorer IX - Visible Passes

Search period start: 24 July 2024 00:00
Search period end: 03 August 2024 00:00
Orbit: 509 x 877 km, 38.7° (Epoch: 23 July)

Date Brightness Start Highest point End Pass type
(mag) Time Alt. Az. Time Alt. Az. Time Alt. Az.
24 Jul ? 00:29:55 10° W 00:31:30 18° W 00:31:30 18° W visible
24 Jul ? 21:42:00 10° W 21:48:00 90° S 21:52:57 13° E visible
24 Jul ? 23:26:33 10° W 23:31:31 57° SW 23:31:31 57° SW visible
25 Jul ? 22:23:11 10° W 22:29:06 78° SSW 22:31:28 35° ESE visible
26 Jul ? 00:07:53 10° W 00:10:02 21° W 00:10:02 21° W visible
26 Jul ? 21:19:48 10° W 21:25:51 87° S 21:31:22 11° E visible
26 Jul ? 23:04:20 10° W 23:09:56 51° SSW 23:09:56 51° SSW visible
27 Jul ? 22:00:51 10° W 22:06:48 68° SSW 22:09:47 28° ESE visible
27 Jul ? 23:45:46 10° W 23:48:21 21° WSW 23:48:21 21° WSW visible
28 Jul ? 20:57:22 10° W 21:03:28 81° S 21:09:12 10° ESE visible
28 Jul ? 22:41:58 10° W 22:47:28 41° SSW 22:48:10 39° S visible
29 Jul ? 21:38:19 10° W 21:44:13 57° SSW 21:47:59 21° SE visible
29 Jul ? 23:23:38 10° W 23:26:32 19° SW 23:26:32 19° SW visible
30 Jul ? 22:19:27 10° W 22:24:40 32° SSW 22:26:20 27° S visible
31 Jul ? 21:15:38 10° W 21:21:23 46° SSW 21:26:07 14° SE visible
31 Jul ? 23:01:41 10° WSW 23:04:40 14° SW 23:04:40 14° SW visible
01 Aug ? 21:56:54 10° W 22:01:37 24° SW 22:04:27 17° S visible
02 Aug ? 20:52:48 10° W 20:58:17 36° SSW 21:03:36 10° SE visible
